Powrót do katalogu

DELTA 1 R/B(2)

AktywnyHEO
NORAD 5977·ROCKET BODY·🇺🇸 United States

Wystrzelony Feb 6, 1969 z Cape Canaveral Space Force Station

Loading…

Następne Przeloty (najbliższe 24 godziny)

TLE

ŚwieżeSource: Space-Track

Epoka: Sep 14, 2026, 04:43 UTC

1 05977U 69011B   26257.19672735  .00001412  00000-0  60257-3 0  9998
2 05977  29.6517 110.2731 5498599 223.5096  76.9002  4.74902568506966

Śledź DELTA 1 R/B(2) w czasie rzeczywistym z AllMySat

Download on the App Store